Temperature
11 10 10 9 9 8 8 7 7 7 6 6 5 5 5 4 4 4 3 3 3 2 2 2 1 1 1 0 -1 -1 -2 -3 -4 -4 -3 -3 -3 -3 -2 -2 -2 -2 -2
10 10 9 9 8 8 7 7 6 6 6 5 5 5 4 4 3 3 3 2 2 2 2 1 1 0 -0 -0 -1 -2 -2 -3 -4 -4 -4 -4 -5 -4 -4 -4 -4 -4 -3
10 9 9 8 8 7 7 6 6 6 5 5 4 4 4 3 3 3 2 2 2 1 1 1 0 -0 -1 -1 -2 -2 -3 -3 -4 -5 -5 -5 -5 -5 -5 -5 -4 -4 -4
9 9 8 8 7 7 6 6 5 5 5 4 4 4 3 3 2 2 2 1 1 1 0 -0 -1 -1 -2 -2 -2 -3 -4 -4 -5 -5 -5 -5 -5 -5 -5 -5 -5 -5 -5
9 8 8 7 7 6 6 5 5 5 4 4 3 3 3 2 2 2 1 1 0 0 -0 -1 -1 -2 -2 -3 -4 -4 -5 -5 -5 -5 -6 -6 -6 -5 -5 -5 -6 -5 -5
8 8 7 7 6 6 5 5 5 4 4 3 3 3 2 2 1 1 0 -0 -0 -1 -1 -1 -2 -2 -2 -3 -4 -5 -5 -5 -6 -6 -6 -6 -6 -6 -6 -6 -6 -6 -6
8 7 7 6 6 5 5 5 4 4 3 3 3 2 2 1 1 0 0 -1 -1 -1 -2 -2 -2 -3 -3 -4 -4 -4 -5 -5 -6 -6 -6 -6 -6 -6 -6 -6 -6 -6 -6
7 7 6 6 5 5 4 4 4 3 3 2 2 2 1 1 1 0 -0 -1 -1 -2 -2 -2 -3 -3 -4 -4 -5 -5 -5 -5 -6 -6 -6 -6 -6 -6 -6 -6 -6 -6 -5
7 6 6 5 5 4 4 4 3 3 2 2 2 1 1 1 0 -0 -1 -2 -2 -2 -3 -3 -4 -4 -5 -5 -6 -6 -6 -6 -6 -6 -6 -6 -6 -6 -6 -6 -6 -6 -6
6 6 5 5 4 4 3 3 3 2 2 1 1 1 0 -0 -0 -1 -1 -2 -3 -3 -3 -4 -4 -5 -5 -6 -6 -6 -6 -6 -6 -6 -6 -6 -6 -6 -6 -6 -6 -7 -7
5 5 4 4 4 3 3 2 2 2 1 1 1 0 -0 -0 -1 -1 -2 -3 -4 -4 -5 -5 -5 -5 -6 -6 -6 -6 -6 -6 -6 -6 -6 -6 -6 -6 -6 -6 -7 -7 -7
5 4 4 3 3 3 2 2 1 1 0 0 -0 -0 -0 -1 -1 -2 -3 -4 -5 -5 -5 -5 -6 -6 -6 -6 -6 -6 -6 -7 -7 -7 -7 -7 -7 -7 -7 -7 -7 -7 -7
4 4 3 3 2 2 2 1 1 0 -0 -1 -1 -1 -1 -1 -2 -3 -4 -4 -5 -6 -6 -6 -6 -6 -6 -6 -6 -7 -7 -7 -7 -7 -7 -7 -7 -7 -7 -7 -7 -7 -7
3 3 3 2 2 1 1 0 -0 -0 -1 -1 -2 -2 -3 -3 -3 -4 -5 -5 -5 -6 -6 -6 -6 -7 -7 -7 -7 -7 -7 -7 -8 -8 -8 -8 -8 -8 -7 -7 -8 -7 -7
3 2 2 1 1 1 0 -0 -1 -1 -2 -2 -3 -4 -4 -4 -4 -5 -6 -6 -6 -6 -6 -6 -6 -7 -7 -7 -7 -8 -8 -8 -8 -9 -9 -9 -8 -8 -8 -8 -8 -8 -8
2 2 1 1 0 0 -0 -1 -1 -2 -2 -3 -4 -4 -5 -5 -6 -6 -6 -6 -7 -7 -7 -7 -7 -7 -8 -8 -8 -9 -9 -9 -9 -9 -9 -9 -9 -9 -9 -8 -8 -8 -8
1 1 0 -0 -0 -1 -2 -2 -2 -2 -3 -4 -4 -5 -5 -6 -6 -7 -7 -7 -7 -7 -7 -7 -8 -8 -8 -9 -9 -9 -9 -9 -9 -9 -9 -9 -9 -9 -9 -9 -9 -8 -8
0 -0 -0 -1 -1 -2 -2 -3 -4 -4 -5 -4 -5 -6 -6 -6 -7 -7 -7 -8 -8 -8 -8 -8 -9 -9 -9 -9 -9 -10 -10 -10 -10 -10 -10 -10 -9 -9 -9 -9 -9 -9 -9
-0 -1 -1 -2 -2 -3 -3 -4 -5 -5 -6 -6 -6 -6 -7 -7 -8 -8 -8 -8 -8 -9 -9 -9 -9 -9 -10 -10 -10 -10 -10 -10 -10 -10 -10 -10 -10 -10 -9 -9 -9 -9 -9
-1 -2 -2 -3 -3 -4 -4 -5 -6 -6 -7 -7 -7 -7 -8 -8 -8 -8 -9 -9 -9 -9 -9 -10 -10 -10 -10 -10 -11 -11 -11 -11 -11 -10 -10 -10 -10 -10 -10 -10 -9 -9 -9
-2 -2 -3 -4 -4 -5 -6 -6 -7 -7 -8 -8 -8 -8 -9 -9 -9 -9 -10 -10 -10 -10 -10 -10 -10 -11 -11 -11 -11 -11 -11 -11 -11 -11 -11 -10 -10 -10 -10 -10 -10 -10 -9
-3 -3 -4 -5 -5 -6 -7 -7 -8 -8 -8 -9 -9 -9 -10 -10 -10 -10 -10 -10 -10 -11 -11 -11 -11 -11 -11 -11 -11 -12 -12 -11 -11 -11 -11 -11 -11 -10 -10 -10 -10 -10 -10
-4 -4 -5 -6 -7 -7 -8 -8 -9 -9 -9 -10 -10 -10 -10 -11 -11 -11 -11 -11 -11 -11 -11 -12 -12 -12 -12 -12 -12 -12 -12 -12 -12 -11 -11 -11 -11 -11 -11 -10 -10 -10 -10
-5 -6 -7 -7 -8 -8 -9 -9 -9 -10 -10 -10 -11 -11 -11 -11 -11 -12 -12 -12 -12 -12 -12 -12 -12 -12 -12 -12 -12 -12 -12 -12 -12 -12 -11 -11 -11 -11 -11 -11 -11 -10 -10
-7 -7 -8 -8 -9 -9 -10 -10 -10 -11 -11 -11 -12 -12 -12 -12 -12 -12 -12 -12 -12 -12 -12 -12 -13 -13 -12 -12 -12 -12 -12 -12 -12 -12 -12 -11 -11 -11 -11 -11 -11 -10 -10
-8 -8 -9 -9 -10 -10 -11 -11 -11 -12 -12 -12 -12 -12 -12 -13 -13 -13 -13 -13 -13 -13 -13 -13 -13 -13 -13 -13 -12 -12 -12 -12 -12 -12 -11 -11 -11 -11 -11 -11 -11 -10 -10
Wind_Speed
9 8 8 7 6 6 6 5 5 4 4 3 3 2 2 3 3 3 4 5 5 6 6 6 8 7 6 6 6 6 7 7 13 11 6 7 9 12 15 18 20 19 20
9 8 8 7 7 6 6 5 5 4 4 3 3 3 3 4 4 5 6 6 6 7 8 7 8 7 8 7 7 8 8 8 10 16 10 7 9 11 12 13 14 17 17
9 9 8 7 7 7 6 5 5 4 3 3 3 4 5 5 5 6 6 7 7 8 8 8 9 8 9 8 8 8 8 10 9 12 14 9 8 9 10 11 12 11 15
10 9 9 8 7 7 6 5 5 4 4 4 4 5 6 6 6 7 7 8 8 9 9 9 9 9 10 10 9 10 10 10 11 12 13 11 9 9 8 9 10 8 10
11 10 9 7 6 6 5 5 4 4 5 5 5 6 6 6 6 7 7 8 9 9 9 9 10 12 15 13 12 9 9 9 10 11 13 12 10 7 7 7 12 10 10
11 9 8 7 6 5 5 4 4 4 5 5 6 6 7 6 11 14 12 8 8 9 9 9 10 13 16 20 22 22 19 14 11 12 13 13 13 10 9 10 11 13 12
10 8 7 7 6 5 5 4 5 5 5 6 6 7 8 10 15 17 17 11 8 8 9 9 10 10 16 10 17 22 21 24 23 17 16 15 14 12 12 14 13 14 15
9 8 7 6 6 5 4 5 5 4 5 6 7 8 8 11 16 18 19 12 8 9 9 10 11 11 12 13 12 12 13 14 17 14 13 15 15 14 14 16 16 15 13
9 8 7 6 5 4 5 5 5 4 6 6 7 8 9 11 17 19 19 9 8 10 10 10 11 11 19 23 16 13 14 12 18 23 24 23 26 26 20 11 10 11 12
8 6 5 5 5 5 6 5 4 4 6 7 7 8 9 10 16 19 20 8 8 9 9 10 17 18 22 24 15 12 15 14 11 13 16 18 15 16 20 12 9 11 11
5 5 4 4 5 5 4 4 5 5 6 7 8 9 9 12 15 19 19 9 8 10 9 8 9 20 24 25 22 13 18 18 12 10 9 8 8 8 9 9 8 9 10
5 4 3 3 3 3 4 5 5 5 7 8 8 9 8 9 13 16 20 19 18 12 10 8 11 22 25 25 19 19 25 21 9 7 8 8 8 8 8 8 9 9 10
4 3 3 3 3 4 4 5 5 5 6 7 7 9 9 7 10 19 21 22 23 15 11 19 22 26 24 16 18 23 19 9 7 9 9 9 7 7 7 7 7 8 8
3 3 3 3 4 4 4 5 5 6 7 7 8 9 10 9 8 8 9 12 16 15 13 17 22 22 17 16 15 12 8 8 9 9 9 8 6 6 7 6 7 6 6
3 3 3 4 5 5 6 6 7 7 8 9 8 9 10 12 13 19 16 10 9 11 13 10 8 7 7 7 7 7 7 7 8 8 8 8 8 8 8 6 5 5 6
3 4 4 4 5 5 6 7 11 13 18 19 19 18 15 20 25 25 25 25 26 25 18 9 8 8 9 8 9 8 7 8 8 8 8 8 8 8 8 7 6 6 6
5 5 4 5 5 6 6 7 9 11 15 18 20 21 21 24 25 25 25 26 25 23 13 8 8 9 9 8 8 8 9 8 8 8 9 8 8 8 8 8 7 6 6
5 6 6 6 6 6 7 8 8 10 11 9 12 19 22 23 24 25 25 22 14 12 8 9 9 9 9 8 9 8 8 8 8 8 8 8 8 8 8 7 7 7 6
5 5 6 6 6 7 8 8 9 10 11 12 10 11 18 20 23 23 21 11 11 10 9 9 9 9 8 8 8 8 8 9 9 8 8 8 8 8 8 7 7 10 8
5 10 9 7 7 7 8 8 9 10 11 11 11 10 9 12 11 11 9 8 10 11 10 10 9 9 8 8 8 8 9 9 9 9 8 8 8 7 8 8 7 7 6
5 8 13 10 7 8 9 10 10 10 11 11 11 13 19 13 11 11 10 9 9 10 10 9 9 9 8 8 8 9 10 10 9 8 8 8 8 8 7 7 7 7 6
6 6 7 8 9 9 10 10 10 11 12 13 12 14 22 14 11 11 10 10 9 8 8 9 9 9 8 8 9 10 10 10 9 8 8 8 8 8 7 7 7 6 6
7 8 9 9 9 14 14 10 10 11 12 12 13 13 12 11 11 11 11 10 9 8 8 8 10 9 8 8 9 10 11 10 9 9 9 9 8 8 8 8 8 8 7
8 9 10 10 10 10 11 11 11 12 12 13 13 13 12 11 11 12 12 10 9 9 9 9 10 12 13 11 10 9 9 11 10 10 11 11 10 9 9 9 9 9 9
8 9 10 10 11 11 12 12 12 13 13 14 14 13 12 12 12 12 11 10 11 11 12 11 10 11 13 14 14 12 17 22 21 14 11 11 12 11 11 10 10 9 9
9 10 11 10 10 11 12 13 13 13 13 14 14 13 12 13 12 12 11 11 11 11 11 11 12 13 14 13 15 19 23 23 23 23 14 11 11 11 11 10 11 11 10
Wind_Direction
160 154 149 151 149 148 154 164 166 167 171 178 191 209 239 256 256 253 259 264 262 267 265 259 260 260 258 254 247 243 245 246 272 281 261 268 270 277 286 286 287 286 287
160 154 154 152 152 156 166 173 172 177 187 196 206 229 249 255 256 255 264 266 262 266 268 266 266 269 261 258 253 251 252 247 263 283 285 273 264 267 273 275 282 284 283
157 155 155 159 163 170 176 178 181 188 202 216 224 241 253 258 261 258 256 260 259 259 262 262 265 265 267 264 257 258 260 263 260 274 284 279 271 268 270 272 273 275 280
160 160 166 173 176 178 180 185 193 200 215 234 241 248 254 259 261 262 260 259 260 260 258 257 258 256 261 265 267 262 262 264 266 272 282 283 276 267 264 273 280 270 272
162 167 175 173 171 173 183 195 204 216 231 241 252 262 263 263 259 258 256 255 257 262 262 258 257 266 272 277 277 267 263 268 272 277 283 286 282 275 271 272 282 283 273
166 171 168 165 170 182 194 203 216 236 248 250 256 262 269 270 281 288 286 265 258 260 267 266 266 275 282 287 288 288 286 282 281 280 283 283 283 278 279 280 284 287 287
163 163 165 169 179 195 201 209 229 243 248 259 263 262 265 274 288 293 294 290 270 264 265 269 276 276 288 278 283 286 285 283 283 282 281 281 283 281 279 280 277 277 279
158 164 169 173 188 198 207 227 240 245 251 258 263 265 268 278 291 296 298 293 275 266 263 263 267 271 273 280 271 269 264 267 272 275 270 272 272 273 268 272 277 280 276
162 170 175 179 191 205 225 241 246 249 258 259 262 267 270 280 291 297 298 283 273 269 266 264 269 269 279 288 288 281 279 274 279 280 279 281 283 288 290 290 287 287 288
170 173 175 180 194 214 231 244 245 248 258 268 271 268 268 273 287 294 296 282 277 277 271 265 277 283 288 291 288 282 285 285 278 280 281 282 283 284 287 282 277 280 282
154 156 170 188 205 222 235 243 255 263 272 274 276 275 270 274 285 291 294 290 276 280 279 273 269 287 291 292 292 288 288 293 288 285 284 279 275 271 270 264 257 260 271
144 158 187 210 224 229 240 258 263 266 275 278 281 283 274 272 282 287 291 292 292 288 284 278 278 289 291 293 296 294 297 302 298 293 287 282 278 275 271 267 262 258 256
145 182 219 239 246 244 245 259 269 265 266 276 278 283 284 273 274 287 292 294 294 291 283 286 290 294 298 297 294 296 300 299 292 288 283 280 273 271 274 276 274 267 265
173 219 237 249 262 261 252 248 254 259 264 271 276 281 284 282 273 271 272 282 286 287 285 285 290 293 293 292 293 295 287 277 281 281 282 280 280 278 276 274 277 280 282
208 238 250 251 256 263 259 250 254 246 251 265 269 271 282 287 284 290 292 288 282 279 287 282 277 280 277 276 278 277 274 278 283 277 280 283 284 283 281 273 268 271 272
231 249 251 254 259 261 271 282 272 269 277 278 280 282 283 286 293 296 297 297 298 297 296 287 284 282 282 283 285 285 281 279 278 279 280 279 281 281 283 279 269 266 269
234 249 253 256 260 264 267 275 287 288 280 280 283 286 288 291 294 296 297 297 297 298 292 283 282 282 279 278 278 278 280 279 277 277 278 278 278 278 277 277 273 267 268
244 258 262 253 256 260 263 267 273 283 292 286 282 285 289 292 294 296 298 301 296 291 273 275 277 275 273 274 275 276 278 281 277 274 274 275 275 276 276 272 268 263 267
253 256 257 256 256 259 262 267 271 275 281 287 286 285 289 293 294 293 295 289 286 284 278 275 273 271 270 270 272 273 275 278 276 273 273 272 271 272 272 269 267 269 269
259 273 278 268 262 264 266 270 275 278 281 283 284 286 289 290 286 286 279 273 278 280 279 277 275 270 268 267 268 271 274 274 272 269 268 269 268 268 270 270 266 263 258
262 273 284 283 272 272 274 275 275 276 279 281 283 287 292 292 289 287 285 280 276 278 278 276 274 271 268 265 265 268 270 273 270 266 265 266 265 267 265 264 264 260 254
264 268 269 272 275 276 278 274 275 277 279 282 285 288 292 289 285 284 282 283 278 273 272 273 274 270 265 263 266 270 271 271 269 265 265 264 262 262 262 259 259 257 249
268 274 277 276 276 282 287 281 279 279 280 281 285 287 287 282 281 281 281 280 276 274 274 273 275 273 266 263 262 264 268 270 268 264 265 268 265 261 257 255 253 252 248
270 275 279 282 282 281 282 282 281 281 282 283 284 284 283 280 280 281 282 279 277 278 277 276 275 272 268 269 268 264 263 265 264 262 258 258 259 258 255 252 250 247 244
275 279 282 284 285 286 286 286 286 285 285 286 286 285 284 283 283 283 280 278 277 278 276 275 275 274 271 269 269 268 272 275 277 272 259 255 253 249 248 248 248 245 238
282 284 287 287 285 285 286 287 287 286 285 285 285 284 283 283 283 282 281 279 278 278 277 277 273 269 269 271 271 273 277 278 277 276 270 262 253 248 244 245 242 240 237
Height
1496 1499 1501 1503 1505 1506 1507 1508 1508 1508 1508 1508 1507 1505 1504 1503 1501 1499 1497 1495 1493 1491 1489 1486 1483 1481 1478 1475 1472 1469 1466 1462 1452 1445 1445 1443 1440 1438 1434 1431 1428 1424 1421
1493 1496 1498 1500 1501 1503 1504 1504 1504 1504 1504 1503 1502 1501 1499 1498 1496 1494 1492 1490 1487 1485 1482 1480 1477 1474 1471 1468 1465 1461 1458 1454 1448 1439 1436 1435 1432 1430 1427 1423 1420 1417 1414
1489 1492 1494 1496 1498 1499 1500 1500 1501 1500 1500 1499 1498 1496 1494 1493 1491 1488 1486 1483 1481 1478 1476 1473 1470 1467 1463 1460 1456 1453 1449 1446 1441 1435 1428 1427 1424 1422 1419 1416 1413 1410 1407
1485 1488 1490 1492 1494 1495 1496 1496 1496 1496 1495 1494 1493 1491 1489 1487 1485 1482 1480 1477 1474 1472 1469 1466 1463 1459 1455 1452 1448 1444 1441 1437 1434 1429 1423 1419 1417 1414 1412 1408 1404 1401 1398
1481 1484 1487 1489 1490 1491 1492 1492 1492 1491 1490 1489 1488 1486 1484 1482 1479 1476 1473 1469 1466 1463 1461 1458 1455 1452 1448 1444 1441 1437 1434 1430 1426 1422 1416 1412 1409 1407 1405 1401 1397 1392 1389
1477 1480 1483 1485 1486 1487 1488 1488 1487 1486 1485 1484 1482 1480 1478 1476 1473 1470 1466 1462 1459 1456 1452 1450 1447 1444 1440 1436 1433 1430 1427 1423 1419 1415 1410 1406 1402 1400 1397 1394 1390 1385 1380
1473 1476 1479 1481 1482 1483 1483 1483 1482 1481 1480 1478 1476 1474 1471 1469 1466 1463 1459 1455 1451 1448 1445 1441 1437 1434 1431 1427 1423 1420 1417 1415 1412 1409 1403 1398 1395 1392 1390 1385 1382 1378 1373
1469 1472 1475 1476 1477 1478 1478 1478 1477 1475 1474 1472 1470 1467 1465 1462 1459 1456 1452 1447 1443 1440 1437 1433 1429 1425 1422 1418 1413 1410 1407 1404 1402 1399 1395 1390 1387 1384 1381 1378 1374 1369 1365
1465 1468 1470 1472 1473 1473 1473 1472 1471 1469 1467 1465 1463 1460 1457 1454 1452 1448 1444 1438 1434 1430 1428 1424 1421 1416 1413 1410 1407 1402 1397 1394 1393 1390 1386 1383 1379 1377 1374 1370 1366 1362 1357
1462 1464 1466 1467 1468 1468 1467 1466 1465 1463 1460 1458 1455 1453 1450 1446 1443 1440 1436 1430 1425 1421 1418 1415 1413 1409 1405 1403 1399 1394 1389 1385 1382 1378 1376 1373 1370 1367 1365 1363 1359 1355 1351
1459 1461 1462 1463 1463 1463 1462 1460 1459 1456 1453 1451 1448 1445 1442 1439 1435 1431 1427 1423 1418 1413 1408 1405 1403 1400 1397 1394 1391 1387 1382 1378 1374 1370 1366 1363 1360 1358 1356 1354 1351 1348 1345
1456 1457 1458 1458 1458 1457 1456 1454 1452 1449 1446 1442 1439 1435 1433 1430 1427 1422 1418 1415 1411 1406 1401 1397 1394 1391 1389 1386 1382 1378 1375 1371 1366 1361 1358 1354 1352 1350 1347 1345 1343 1341 1338
1452 1453 1454 1453 1453 1451 1449 1447 1445 1442 1438 1434 1431 1426 1422 1420 1417 1414 1410 1406 1402 1398 1393 1389 1386 1383 1380 1376 1373 1370 1366 1362 1358 1354 1350 1347 1344 1342 1340 1337 1335 1333 1331
1448 1449 1449 1448 1447 1445 1443 1441 1438 1434 1431 1427 1423 1418 1413 1410 1407 1404 1400 1396 1393 1389 1385 1381 1377 1374 1371 1367 1364 1361 1358 1354 1350 1347 1343 1340 1338 1335 1333 1331 1329 1327 1324
1444 1444 1443 1442 1440 1438 1436 1433 1430 1427 1424 1419 1415 1411 1406 1401 1398 1396 1393 1389 1385 1381 1377 1372 1368 1365 1361 1358 1355 1352 1349 1346 1343 1340 1337 1334 1331 1329 1327 1325 1323 1321 1319
1439 1438 1437 1435 1433 1430 1427 1424 1421 1419 1415 1411 1408 1404 1399 1395 1390 1387 1384 1380 1377 1373 1370 1364 1360 1357 1353 1350 1347 1343 1341 1338 1336 1333 1330 1328 1326 1323 1321 1319 1318 1316 1314
1433 1432 1430 1428 1425 1422 1419 1415 1410 1408 1405 1402 1399 1395 1391 1386 1382 1378 1375 1371 1368 1365 1360 1356 1352 1349 1346 1342 1339 1336 1333 1331 1329 1326 1324 1322 1320 1318 1316 1314 1312 1311 1309
1427 1425 1423 1420 1418 1414 1411 1407 1403 1397 1393 1389 1388 1385 1381 1377 1373 1370 1366 1362 1357 1354 1351 1347 1344 1340 1337 1335 1332 1329 1326 1324 1321 1319 1317 1316 1314 1312 1310 1308 1307 1305 1304
1421 1418 1416 1412 1409 1406 1402 1398 1394 1390 1385 1380 1376 1373 1371 1367 1363 1360 1357 1353 1348 1344 1341 1338 1335 1332 1329 1327 1324 1321 1319 1316 1314 1312 1311 1309 1307 1306 1304 1302 1301 1300 1299
1414 1411 1408 1404 1401 1397 1393 1390 1385 1381 1376 1372 1367 1364 1360 1357 1352 1349 1346 1343 1339 1335 1332 1329 1326 1324 1321 1319 1316 1313 1311 1308 1307 1305 1304 1302 1301 1300 1298 1297 1295 1294 1294
1406 1403 1400 1396 1392 1388 1384 1380 1376 1372 1367 1363 1359 1355 1353 1349 1343 1339 1336 1333 1330 1326 1323 1320 1317 1315 1312 1310 1308 1305 1303 1301 1299 1298 1297 1295 1294 1293 1292 1291 1290 1289 1288
1398 1394 1391 1387 1383 1379 1375 1371 1367 1363 1358 1354 1348 1345 1342 1339 1334 1330 1326 1323 1320 1317 1315 1311 1308 1306 1303 1301 1299 1297 1294 1293 1292 1291 1289 1288 1287 1286 1285 1284 1283 1283 1283
1389 1385 1381 1377 1373 1369 1365 1361 1357 1353 1348 1344 1339 1335 1331 1328 1324 1320 1317 1314 1311 1308 1305 1302 1299 1296 1294 1292 1290 1288 1286 1285 1284 1283 1282 1281 1280 1279 1278 1278 1277 1277 1277
1380 1376 1372 1368 1364 1360 1355 1351 1347 1343 1338 1334 1329 1325 1321 1318 1314 1311 1307 1304 1301 1298 1295 1292 1289 1286 1284 1283 1281 1279 1277 1276 1275 1274 1274 1273 1272 1271 1271 1270 1270 1270 1270
1371 1367 1363 1358 1354 1350 1345 1341 1336 1332 1328 1324 1319 1315 1312 1308 1304 1301 1297 1294 1291 1288 1285 1282 1279 1277 1275 1273 1271 1269 1268 1267 1266 1266 1265 1265 1264 1263 1263 1263 1262 1263 1263
1362 1358 1353 1349 1344 1339 1335 1330 1325 1321 1317 1313 1309 1305 1302 1298 1294 1290 1287 1284 1281 1277 1275 1272 1269 1267 1265 1263 1261 1259 1258 1257 1257 1257 1257 1256 1255 1255 1255 1254 1254 1255 1255